This is the latest recevied weather packets stored in our database for station/object ALAKES. If no packets are shown the sender has not sent any weather packets the latest 10 day(s).
| Time | Temp. | Humidity | Pressure | Rain* | Wind** | Luminosity | Snow |
|---|---|---|---|---|---|---|---|
| 1787791699 | 20.56° C | 19% | - | 0 mm | - | - | - |
| 1787791062 | 20.56° C | 19% | - | 0 mm | - | - | - |
| 1787790424 | 20.56° C | 19% | - | 0 mm | - | - | - |
| 1787789786 | 20.56° C | 18% | - | 0 mm | - | - | - |
| 1787789160 | 21.11° C | 19% | - | 0 mm | - | - | - |
| 1787788528 | 21.11° C | 18% | - | 0 mm | - | - | - |
| 1787787902 | 21.11° C | 18% | - | 0 mm | - | - | - |
| 1787787276 | 20.56° C | 17% | - | 0 mm | - | - | - |
| 1787786637 | 20.56° C | 16% | - | 0 mm | - | - | - |
| 1787786011 | 21.11° C | 16% | - | 0 mm | - | - | - |
| 1787785525 | 20.56° C | 17% | - | 0 mm | - | - | - |
| 1787785389 | 20.56° C | 17% | - | 0 mm | - | - | - |
| 1787784764 | 20° C | 16% | - | 0 mm | - | - | - |
| 1787784138 | 20.56° C | 18% | - | 0 mm | - | - | - |
| 1787783510 | 20.56° C | 17% | - | 0 mm | - | - | - |
| 1787782884 | 20° C | 18% | - | 0 mm | - | - | - |
| 1787782264 | 20° C | 20% | - | 0 mm | - | - | - |
| 1787781641 | 20° C | 19% | - | 0 mm | - | - | - |
| 1787781015 | 20° C | 19% | - | 0 mm | - | - | - |
| 1787780387 | 19.44° C | 20% | - | 0 mm | - | - | - |
| 1787779753 | 19.44° C | 21% | - | 0 mm | - | - | - |
| 1787779125 | 19.44° C | 18% | - | 0 mm | - | - | - |
| 1787778499 | 19.44° C | 19% | - | 0 mm | - | - | - |
| 1787777873 | 18.89° C | 19% | - | 0 mm | - | - | - |
| 1787777252 | 18.33° C | 24% | - | 0 mm | - | - | - |
* Rain latest 24 hours (hover to see other rain measurements)
** Current wind speed in m/s (hover to see current wind gust speed)